St. George, UT

2:48 PM MST on December 08, 2019 (GMT -0700)
Saint George Municipal

Weather History for KSGU - October, 2019

Change the Weather History Date:

Monday, October 21, 2019

  Actual Average Record
Temperature  
Mean Temperature 56 °F -  
Max Temperature 73 °F 78 °F 91 °F (2003)
Min Temperature 39 °F 45 °F 31 °F (1949)
Degree Days  
Heating Degree Days 9    
Growing Degree Days 6 (Base 50)    
Moisture  
Dew Point 13 °F    
Average Humidity 20    
Maximum Humidity 26    
Minimum Humidity 14    
Precipitation  
Precipitation 0.00 in - - ()
Sea Level Pressure  
Sea Level Pressure 30.14 in    
Wind  
Wind Speed 3 mph (SSE)    
Max Wind Speed 6 mph    
Max Gust Speed -    
Visibility 10 miles    
Events      
Averages and records for this station are not official NWS values.
T = Trace of Precipitation, MM = Missing Value Source: NWS Daily Summary

Daily Weather History Graph

Daily Weather History Graph

Search for Another Location

Airport or City:

Astronomy

Oct. 21, 2019 Rise Set
Actual Time 7:47 AM MDT 6:49 PM MDT
Civil Twilight 7:20 AM MDT 7:15 PM MDT
Nautical Twilight 6:50 AM MDT 7:46 PM MDT
Astronomical Twilight 6:20 AM MDT 8:16 PM MDT
Moon 12:09 AM MDT (10/21) 3:03 PM MDT (10/21)
Length of Visible Light 11h 55m
Length of Day
11h 02m
Waning Gibbous, 47% of the Moon is Illuminated
Oct 21
Waning Gibbous
Oct 27
New
Nov 4
First Quarter
Nov 12
Full
Nov 19
Last Quarter

Hourly Weather History & Observations

Time (MDT) Temp. Windchill Dew Point Humidity Pressure Visibility Wind Dir Wind Speed Gust Speed Precip Events Conditions
12:56 AM 48.0 °F - 9.0 °F 21% 30.08 in 10.0 mi South 3.5 mph - N/A   Clear
1:56 AM 46.9 °F - 9.0 °F 21% 30.07 in 10.0 mi ESE 3.5 mph - N/A   Clear
2:56 AM 43.0 °F 39.5 °F 8.1 °F 24% 30.09 in 10.0 mi SE 5.8 mph - N/A   Clear
3:56 AM 44.1 °F - 8.1 °F 23% 30.09 in 10.0 mi Calm Calm - N/A   Clear
4:56 AM 42.1 °F 39.2 °F 7.0 °F 24% 30.10 in 10.0 mi SSE 4.6 mph - N/A   Clear
5:56 AM 39.9 °F 37.8 °F 7.0 °F 26% 30.12 in 10.0 mi SSE 3.5 mph - N/A   Clear
6:56 AM 42.1 °F 38.4 °F 7.0 °F 24% 30.14 in 10.0 mi ESE 5.8 mph - N/A   Clear
7:56 AM 39.9 °F 36.7 °F 7.0 °F 26% 30.17 in 10.0 mi South 4.6 mph - N/A   Clear
8:56 AM 43.0 °F 41.3 °F 8.1 °F 24% 30.19 in 10.0 mi SW 3.5 mph - N/A   Clear
9:56 AM 46.9 °F - 10.9 °F 23% 30.20 in 10.0 mi South 4.6 mph - N/A   Clear
10:56 AM 51.1 °F - 10.9 °F 20% 30.20 in 10.0 mi Calm Calm - N/A   Clear
11:56 AM 55.9 °F - 10.9 °F 17% 30.18 in 10.0 mi SSW 4.6 mph - N/A   Clear
12:56 PM 60.1 °F - 12.9 °F 16% 30.17 in 10.0 mi North 4.6 mph - N/A   Clear
1:56 PM 64.0 °F - 16.0 °F 16% 30.13 in 10.0 mi Calm Calm - N/A   Clear
2:56 PM 68.0 °F - 19.9 °F 16% 30.10 in 10.0 mi Calm Calm - N/A   Clear
3:56 PM 71.1 °F - 21.0 °F 15% 30.08 in 10.0 mi Calm Calm - N/A   Clear
4:56 PM 72.0 °F - 19.9 °F 14% 30.09 in 10.0 mi Calm Calm - N/A   Clear
5:56 PM 73.0 °F - 21.0 °F 14% 30.09 in 10.0 mi Calm Calm - N/A   Clear
6:56 PM 68.0 °F - 19.9 °F 16% 30.11 in 10.0 mi ESE 5.8 mph - N/A   Clear
7:56 PM 63.0 °F - 18.0 °F 18% 30.14 in 10.0 mi SE 5.8 mph - N/A   Clear
8:56 PM 64.9 °F - 19.0 °F 17% 30.17 in 10.0 mi Calm Calm - N/A   Clear
9:56 PM 60.1 °F - 18.0 °F 20% 30.19 in 10.0 mi Variable 3.5 mph - N/A   Clear
10:56 PM 57.0 °F - 17.1 °F 21% 30.22 in 10.0 mi SSE 3.5 mph - N/A   Clear
11:56 PM 57.0 °F - 18.0 °F 22% 30.23 in 9.0 mi Calm Calm - N/A   Clear